Weather History for Red Oak, IA

Change the Weather History Date:

Wednesday, March 5, 2014

  Actual Average Record
Temperature  
Mean Temperature 28 °F -  
Max Temperature 32 °F 44 °F 77 °F (2009)
Min Temperature 23 °F 23 °F -21 °F (1960)
Degree Days  
Heating Degree Days 38    
Moisture  
Dew Point 19 °F    
Average Humidity 72    
Maximum Humidity 80    
Minimum Humidity 60    
Precipitation  
Precipitation 0.00 in - - ()
Sea Level Pressure  
Sea Level Pressure 30.20 in    
Wind  
Wind Speed 9 mph (NE)    
Max Wind Speed 14 mph    
Max Gust Speed 18 mph    
Visibility 10 miles    
Events      
Averages and records for this station are not official NWS values.
T = Trace of Precipitation, MM = Missing Value Source: NWS Daily Summary

Daily Weather History Graph

Daily Weather History Graph

Search for Another Location

Airport:

Trip Planner

Search our weather history database for the weather conditions in past years. The results will help you decide how hot, cold, wet, or windy it might be!

Date:

Astronomy

Mar. 05, 2014 Rise Set
Actual Time 6:48 AM CST 6:16 PM CST
Civil Twilight 6:21 AM CST 6:44 PM CST
Nautical Twilight 5:49 AM CST 7:16 PM CST
Astronomical Twilight 5:17 AM CST 7:48 PM CST
Moon 9:12 AM CST (3/5) 11:28 PM CST (3/5)
Length of Visible Light 12h 22m
Length of Day
11h 27m
Waxing Crescent, 23% of the Moon is Illuminated
Mar 5
Waxing Crescent
Mar 8
First Quarter
Mar 16
Full
Mar 23
Last Quarter
Mar 30
New

Hourly Weather History & Observations

Time (CST) Temp. Windchill Dew Point Humidity Pressure Visibility Wind Dir Wind Speed Gust Speed Precip Events Conditions
12:15 AM 28.4 °F 21.2 °F 21.2 °F 74% 30.08 in 10.0 mi NE 6.9 mph - N/A   Overcast
12:35 AM 28.4 °F 21.2 °F 21.2 °F 74% 30.08 in 10.0 mi NE 6.9 mph - N/A   Overcast
12:55 AM 28.4 °F 20.4 °F 21.2 °F 74% 30.09 in 10.0 mi NE 8.1 mph - N/A   Overcast
1:15 AM 28.4 °F 21.2 °F 21.2 °F 74% 30.10 in 10.0 mi NNE 6.9 mph - N/A   Overcast
1:35 AM 28.4 °F 20.4 °F 21.2 °F 74% 30.10 in 10.0 mi NNE 8.1 mph - N/A   Overcast
1:55 AM 26.6 °F 17.5 °F 21.2 °F 80% 30.10 in 10.0 mi NNE 9.2 mph - N/A   Overcast
2:15 AM 26.6 °F 16.8 °F 21.2 °F 80% 30.10 in 10.0 mi NNE 10.4 mph - N/A   Overcast
2:35 AM 26.6 °F 17.5 °F 19.4 °F 74% 30.11 in 10.0 mi NE 9.2 mph 16.1 mph N/A   Overcast
2:55 AM 26.6 °F 16.8 °F 19.4 °F 74% 30.12 in 10.0 mi NNE 10.4 mph - N/A   Overcast
3:10 AM 26.6 °F 17.5 °F 19.4 °F 74% 30.12 in 10.0 mi NE 9.2 mph - N/A   Overcast
3:35 AM 26.6 °F 16.8 °F 19.4 °F 74% 30.13 in 10.0 mi NNE 10.4 mph - N/A   Overcast
3:55 AM 24.8 °F 15.3 °F 19.4 °F 80% 30.13 in 10.0 mi NNE 9.2 mph 16.1 mph N/A   Overcast
4:15 AM 24.8 °F 14.0 °F 17.6 °F 74% 30.14 in 10.0 mi NNE 11.5 mph - N/A   Overcast
4:35 AM 24.8 °F 14.6 °F 17.6 °F 74% 30.14 in 10.0 mi NE 10.4 mph - N/A   Overcast
4:55 AM 24.8 °F 14.6 °F 17.6 °F 74% 30.14 in 10.0 mi NE 10.4 mph - N/A   Overcast
5:15 AM 23.0 °F 11.7 °F 17.6 °F 80% 30.15 in 10.0 mi NNE 11.5 mph - N/A   Overcast
5:35 AM 23.0 °F 13.1 °F 17.6 °F 80% 30.15 in 10.0 mi NE 9.2 mph - N/A   Overcast
5:55 AM 23.0 °F 11.1 °F 17.6 °F 80% 30.15 in 10.0 mi NE 12.7 mph - N/A   Overcast
6:15 AM 23.0 °F 11.7 °F 17.6 °F 80% 30.16 in 10.0 mi NNE 11.5 mph - N/A   Overcast
6:35 AM 23.0 °F 12.4 °F 17.6 °F 80% 30.16 in 10.0 mi NNE 10.4 mph - N/A   Overcast
6:55 AM 23.0 °F 11.1 °F 17.6 °F 80% 30.17 in 10.0 mi NE 12.7 mph - N/A   Overcast
7:15 AM 23.0 °F 12.4 °F 17.6 °F 80% 30.18 in 10.0 mi NE 10.4 mph - N/A   Overcast
7:35 AM 23.0 °F 12.4 °F 17.6 °F 80% 30.20 in 10.0 mi NE 10.4 mph - N/A   Mostly Cloudy
7:55 AM 24.8 °F 14.0 °F 17.6 °F 74% 30.20 in 10.0 mi NE 11.5 mph - N/A   Mostly Cloudy
8:15 AM 24.8 °F 15.3 °F 17.6 °F 74% 30.22 in 10.0 mi NE 9.2 mph - N/A   Clear
8:35 AM 24.8 °F 15.3 °F 17.6 °F 74% 30.22 in 10.0 mi NE 9.2 mph - N/A   Clear
8:55 AM 24.8 °F 14.6 °F 17.6 °F 74% 30.24 in 10.0 mi NE 10.4 mph - N/A   Partly Cloudy
9:15 AM 24.8 °F 14.6 °F 17.6 °F 74% 30.25 in 10.0 mi NNE 10.4 mph - N/A   Mostly Cloudy
9:35 AM 24.8 °F 16.9 °F 17.6 °F 74% 30.26 in 10.0 mi ENE 6.9 mph - N/A   Overcast
9:55 AM 26.6 °F 18.2 °F 17.6 °F 69% 30.27 in 10.0 mi ENE 8.1 mph - N/A   Overcast
10:15 AM 26.6 °F 17.5 °F 17.6 °F 69% 30.27 in 10.0 mi ENE 9.2 mph - N/A   Overcast
10:35 AM 26.6 °F 18.2 °F 17.6 °F 69% 30.27 in 10.0 mi NE 8.1 mph 13.8 mph N/A   Overcast
10:55 AM 26.6 °F 16.8 °F 17.6 °F 69% 30.27 in 10.0 mi NE 10.4 mph - N/A   Overcast
11:15 AM 26.6 °F 18.2 °F 17.6 °F 69% 30.28 in 10.0 mi NNE 8.1 mph - N/A   Overcast
11:35 AM 26.6 °F 18.2 °F 17.6 °F 69% 30.28 in 10.0 mi NNE 8.1 mph - N/A   Overcast
11:55 AM 28.4 °F 19.1 °F 17.6 °F 64% 30.28 in 10.0 mi NE 10.4 mph - N/A   Overcast
12:15 PM 28.4 °F 19.7 °F 17.6 °F 64% 30.28 in 10.0 mi NE 9.2 mph - N/A   Overcast
12:35 PM 28.4 °F 20.4 °F 17.6 °F 64% 30.28 in 10.0 mi NNE 8.1 mph - N/A   Overcast
12:55 PM 28.4 °F 18.5 °F 17.6 °F 64% 30.27 in 10.0 mi NNE 11.5 mph - N/A   Overcast
1:15 PM 30.2 °F 21.3 °F 19.4 °F 64% 30.27 in 10.0 mi NNE 10.4 mph - N/A   Overcast
1:35 PM 30.2 °F 21.3 °F 19.4 °F 64% 30.26 in 10.0 mi NE 10.4 mph - N/A   Overcast
1:55 PM 30.2 °F 21.3 °F 19.4 °F 64% 30.25 in 10.0 mi ENE 10.4 mph - N/A   Overcast
2:15 PM 30.2 °F 20.2 °F 19.4 °F 64% 30.25 in 10.0 mi NE 12.7 mph - N/A   Overcast
2:35 PM 30.2 °F 22.6 °F 19.4 °F 64% 30.25 in 10.0 mi NE 8.1 mph 18.4 mph N/A   Overcast
2:55 PM 32.0 °F 23.6 °F 21.2 °F 64% 30.25 in 10.0 mi NE 10.4 mph - N/A   Scattered Clouds
3:15 PM 32.0 °F 22.1 °F 19.4 °F 60% 30.25 in 10.0 mi NE 13.8 mph - N/A   Clear
3:35 PM 32.0 °F 23.6 °F 21.2 °F 64% 30.25 in 10.0 mi ENE 10.4 mph - N/A   Clear
3:50 PM 32.0 °F 23.0 °F 21.2 °F 64% 30.26 in 10.0 mi East 11.5 mph - N/A   Partly Cloudy
4:15 PM 32.0 °F 22.5 °F 21.2 °F 64% 30.26 in 10.0 mi ENE 12.7 mph - N/A   Mostly Cloudy
4:35 PM 30.2 °F 21.3 °F 21.2 °F 69% 30.26 in 10.0 mi NE 10.4 mph - N/A   Overcast
4:55 PM 30.2 °F 20.8 °F 21.2 °F 69% 30.27 in 10.0 mi NE 11.5 mph - N/A   Overcast
7:15 PM 26.6 °F 17.5 °F 21.2 °F 80% 30.30 in 10.0 mi East 9.2 mph - N/A   Overcast
7:40 PM 26.6 °F 18.2 °F 21.2 °F 80% 30.30 in 10.0 mi East 8.1 mph - N/A   Overcast